Weather in Ortolyk

Russia / Altai Republic     50°02′02″N   88°30′06″E
temp.,
°C
wind,
m/s
gust,
m/s
humid.,
%
clouds,
%
prec.,
mm/h
press.,
hPa
HPBL,
m
17 may, mon
mon1701:00+8nw22520 0.1 101634
04:00+7nw22564 0.0 101616
07:00+8nw115230 0.0 1016116
10:00+12wsw13399 0.0 10141674
13:00+15w352798 0.0 10122834
16:00+16nw562692 0.0 10102662
19:00+14nnw573598 0.1 10112084
22:00+9nnw456339 0.1 1015450
18 may, tue
tue1801:00+8nw22718 0.2 101551
04:00+7nw22765 0.0 101529
07:00+8nw12665 0.0 1015190
10:00+12wnw13455 0.0 10131314
13:00+15nw46316 0.0 10102431
16:00+17nw772379 0.0 10072928
19:00+16nnw673040 0.0 10061829
22:00+12nnw4749100 0.2 1008458
19 may, wed
wed1901:00+10nw3360100 0.2 100883
04:00+8nw336533 0.1 100861
07:00+9wnw235866 0.1 1007185
10:00+13ssw244377 0.1 10041857
13:00+15w7934100 0.1 10002353
16:00+15w71133100 0.1 9982674
19:00+9nnw4667100 1.4 1002624
22:00+8w1272100 0.6 1002295
20 may, thu
thu2001:00+5nnw5590100 4.4 1001403
04:00+4nnw2291100 3.6 1001441
07:00+3wnw3494100 7.4 1000273
10:00+1n3672100 2.9 10041069
13:00+1nw3764100 4.3 10051452
16:00+1nnw7115836 0.7 10071697
19:00−1nw7125748 1.2 10131868
22:00−2nw5106025 0.1 10161321
21 may, fri
fri2101:00−4wnw466211 0.1 1018357
04:00−4wnw3464100 0.0 1017383
07:00−3wnw2375100 0.3 1017537
10:00−3ese1191100 2.2 1015343
13:00−1ese2295100 6.1 1014306
16:00−1ene1199100 3.9 1013234
19:00+1ne01100100 6.2 1013121
22:000nw01100100 2.6 101479